Вернуться в каталог

FENGYUN 1C DEB

АктивенPO
NORAD 30452·DEBRIS·🇨🇳 China

Запущен May 10, 1999 с Taiyuan Satellite Launch Center

Loading…

Ближайшие Пролёты (ближайшие 24 часа)

TLE

СвежийSource: Space-Track

Эпоха: Sep 14, 2026, 11:19 UTC

1 30452U 99025AFP 26257.47182551  .00012160  00000-0  18010-2 0  9996
2 30452  99.3366  80.5856 0040549 125.1901 265.1678 14.74753857 21442

Отслеживайте FENGYUN 1C DEB в реальном времени с AllMySat

Download on the App Store